AirNav   Everest Fuels
 
 356 users online  

NH84 Northwood Airport
Northwood, New Hampshire, USA

GOING TO NORTHWOOD?


FAA INFORMATION EFFECTIVE 16 JULY 2020

Location

FAA Identifier: NH84
Lat/Long: 43-12-27.3200N 071-13-16.1600W
43-12.455333N 071-13.269333W
43.2075889,-71.2211556
(estimated)
Elevation: 640 ft. / 195 m (estimated)
Variation: 16W (1995)
From city: 1 mile SE of NORTHWOOD, NH
Time zone: UTC -4 (UTC -5 during Standard Time)
Zip code: 03261

Airport Operations

Airport use: Private use. Permission required prior to landing
Activation date: 03/2000
Control tower: no
ARTCC: BOSTON CENTER
FSS: BANGOR FLIGHT SERVICE STATION
Attendance: UNATNDD
Wind indicator: yes
Segmented circle: no

Airport Communications

WX ASOS at CON (12 nm W): 132.325 (603-224-6558)
WX ASOS at DAW (14 nm E): 135.275 (603-332-7814)
WX ASOS at MHT (19 nm SW): 119.55 (603-621-1766)

Nearby radio navigation aids

VOR radial/distance  VOR name  Freq  Var
CONr108/15.5CONCORD VOR/DME112.9015W
PSMr309/18.6PEASE VOR/DME116.5016W
MHTr033/21.4MANCHESTER VOR/DME114.4015W
LWMr004/28.6LAWRENCE VOR/DME112.5015W
ENEr261/29.6KENNEBUNK VOR/DME117.1017W

 
NDB name  Hdg/Dist  Freq  Var  ID
EPSOM078/11.421616WCO -.-. ---
ROLLINS283/17.226016WESG . ... --.

Airport Services

Runway Information

Runway 12/30

Dimensions: 2300 x 75 ft. / 701 x 23 m
Surface: turf
RUNWAY 12  RUNWAY 30
Traffic pattern: leftleft
Obstructions: 50 ft. tree, 150 ft. from runway50 ft. trees, 150 ft. from runway

Airport Ownership and Management from official FAA records

Ownership: Privately-owned
Owner: CHARLES THERRIAULT, JR
266 HARMONY RD
NORTHWOOD, NH 03261
Phone 603-942-7077
Manager: CHARLES THERRIAULT, JR
266 HARMONY RD
NORTHWOOD, NH 03261
Phone 603-942-7077

Airport Operational Statistics

Aircraft based on the field: 1
Single engine airplanes: 1
    

Additional Remarks

FOR CD CTC BOSTON APCH AT 603-594-5551.

Instrument Procedures

There are no published instrument procedures at NH84.

Some nearby airports with instrument procedures:

KCON - Concord Municipal Airport (12 nm W)
KDAW - Skyhaven Airport (14 nm E)
KMHT - Manchester Airport (19 nm SW)
KPSM - Portsmouth International Airport at Pease (19 nm SE)
3B4 - Littlebrook Air Park (20 nm E)
 
Loc | Ops | Rwys | IFR | FBO | Links
Com | Nav | Svcs | Stats | Notes
Area around NH84 (Northwood Airport)
 
Road maps at: MapQuest Bing Google
 
Aerial photo
No photo
 
Sectional chart

 
Airport distance calculator
Flying to Northwood Airport? Find the distance to fly.

From to NH84

Sunrise and sunset
Times for 07-Aug-2020
 Local
(UTC-4)
 Zulu
(UTC)
Morning civil twilight05:1209:12
Sunrise05:4409:44
Sunset19:5723:57
Evening civil twilight20:2900:29

Current date and time
Zulu (UTC)  07-Aug-2020 09:26:21
Local (UTC-4)  07-Aug-2020 05:26:21
 
METAR
KCON 
12nm W 
070851Z AUTO 00000KT 10SM CLR 12/11 A3017 RMK AO2 SLP217 T01170106 53001 $
KDAW 
14nm E 
070851Z AUTO 31004KT 10SM CLR 14/12 A3016 RMK AO2 SLP208 T01390117 53002
KMHT 
19nm SW 
070853Z 33004KT 10SM FEW060 BKN250 17/13 A3015 RMK AO2 SLP218 T01720133 53002
KPSM 
20nm SE 
070856Z 00000KT 10SM SCT060 BKN120 BKN250 15/13 A3014 RMK AO2A SLP209 T01520129 53003
KLCI 
23nm N 
070856Z AUTO 00000KT 10SM CLR 13/12 A3018 RMK AO2 SLP218 T01280122 53001
TAF
KCON 
12nm W 
070520Z 0706/0806 00000KT P6SM BKN250 FM071700 13004KT P6SM SCT100 BKN250
KMHT 
19nm SW 
070520Z 0706/0806 VRB03KT P6SM BKN250 FM071700 13007KT P6SM BKN100
KPSM 
20nm SE 
070520Z 0706/0806 VRB03KT P6SM BKN250 FM071600 12007KT P6SM SCT100 BKN250
NOTAMs
Click for the latest NOTAMs
NOTAMs are issued by the DoD/FAA and will open in a separate window not controlled by AirNav.

 

 
 

Would you like to see your business listed on this page?

 If your business provides an interesting product or service to pilots, flight crews, aircraft, or users of the Northwood Airport, you should consider listing it here.  To start the listing process, click on the button below
 
Add a business
 

Other Pages about Northwood Airport

Update a link
 
Copyright © AirNav, LLC. All rights reserved. Privacy Policy  Contact